Location: Pine Creek
(45.5072°N, 110.5649°W)
Time: 06:09:20
(UTC+00:00)

Envisat - Pass Details

Date: 23 January 2022
Orbit: 764 x 765 km, 98.2° (Epoch: 22 May)

Event Time Altitude Azimuth Distance (km) Brightness Sun altitude
Rises 11:10:33 0° 27° (NNE) 3,240 6.7 -38.6°
Reaches altitude 10° 11:13:26 10° 43° (NE) 2,309 6.0 -38.1°
Maximum altitude 11:17:12 21° 91° (E) 1,690 5.3 -37.5°
Drops below altitude 10° 11:20:56 10° 139° (SE) 2,296 5.7 -36.8°
Sets 11:23:48 0° 156° (SSE) 3,217 6.4 -36.4°
